Location: North Weald
(51.7000°N, 0.1667°E)
Time: 01:41:15
(UTC+00:00)

Daily predictions for brighter satellites

Satellite Brightness Start Highest point End
(mag) Time Altitude Azimuth Time Altitude Azimuth Time Altitude Azimuth
Cosmos 1461 3.0 00:00:58 10° NW 00:05:02 59° SW 00:06:31 36° S
Cosmos 1553 Rocket 4.0 00:03:21 27° S 00:06:50 73° E 00:13:02 10° NNE
Cosmos 1867 3.9 00:05:01 30° S 00:07:26 50° ESE 00:12:43 10° NE
Cosmos 2221 Rocket 3.6 00:06:47 34° S 00:08:37 69° E 00:13:01 10° NNE
Cosmos 1674 Rocket 4.0 00:06:55 30° SSE 00:08:42 48° E 00:12:52 10° NNE
Cosmos 1238 Rocket 2.0 00:08:36 10° N 00:11:34 84° E 00:12:06 57° SSE
Cosmos 1674 2.6 00:10:51 41° S 00:12:02 76° E 00:15:49 10° NNE
ATLAS CENTAUR R/B 2.7 00:08:44 10° WNW 00:12:55 29° WSW 00:13:59 26° SW
SL-19 R/B 3.8 00:17:33 49° SW 00:17:59 55° WSW 00:20:52 10° NNW
Cosmos 468 4.4 00:16:15 10° NNW 00:21:30 81° WSW 00:24:27 27° SSE
ATLAS 5 CENTAUR R/B 3.4 00:06:00 10° NW 00:21:33 69° SW 00:24:40 23° SSE
CZ-4C R/B 3.1 00:14:43 10° NW 00:21:43 60° SW 00:27:52 19° SSE
Cosmos 2322 Rocket 3.7 00:16:56 10° WSW 00:21:59 33° NW 00:27:04 10° NNE
Cosmos 2333 Rocket 2.4 00:19:42 20° SW 00:23:43 67° NW 00:29:24 10° NNE
Cosmos 1378 Rocket 3.7 00:22:19 32° SSE 00:24:14 66° E 00:28:40 10° NNE
Cosmos 2322 3.7 00:20:47 24° SSW 00:24:22 84° WNW 00:30:10 10° NNE
Cosmos 1844 Rocket 4.4 00:20:59 10° WNW 00:24:29 17° W 00:26:32 14° SW
USA 215 3.3 00:20:32 10° ENE 00:27:07 86° NNW 00:33:41 10° WSW
NOSS 0 Rocket 4.3 00:29:23 26° S 00:32:46 51° ESE 00:38:47 10° NE
PSLV R/B 3.6 00:28:29 10° NNE 00:32:51 76° WNW 00:35:01 30° SSW
Meteor 2-10 Rocket 4.2 00:31:19 10° N 00:36:59 57° ENE 00:41:17 16° SSE
Cosmos 2151 Rocket 4.0 00:34:52 10° NNW 00:39:06 47° W 00:40:53 30° SSW
Cosmos 1745 Rocket 4.0 00:34:30 10° NNW 00:40:46 76° W 00:44:34 25° S
Cosmos 839 Rocket 4.1 00:35:55 10° NW 00:42:12 75° SW 00:49:12 11° SSE
Okean 2 Rocket 3.9 00:39:09 10° NNW 00:43:22 39° W 00:45:14 26° SW
Okean 2 4.0 00:42:13 27° SW 00:44:03 46° WNW 00:48:01 10° N
ADEOS Rocket 3.9 00:42:18 21° SW 00:45:07 32° W 00:50:27 10° NNW
USA 308 3.9 00:44:47 26° SSE 00:45:19 27° SE 00:48:53 10° E
Cosmos 2219 Rocket 2.6 00:42:56 18° SW 00:47:00 59° NW 00:52:33 10° NNE
Meteor 2-12 Rocket 4.4 00:42:16 10° N 00:48:23 88° W 00:52:26 22° S
Meteor 1-16 Rocket 4.5 00:42:43 10° NNW 00:48:36 63° W 00:52:02 25° S
Cosmos 1707 4.3 00:50:02 18° WSW 00:51:58 26° WNW 00:55:16 10° N
GP-B 3.4 00:51:07 10° N 00:55:33 63° E 00:58:07 24° SSE
CZ-2D R/B 3.4 00:53:47 10° NNE 00:58:33 31° E 01:02:28 14° SSE
Cosmos 1300 2.6 00:55:56 10° NNW 00:59:44 84° W 01:01:27 31° S
Lacrosse 5 3.5 00:58:31 16° SSE 01:00:15 19° SE 01:03:50 10° E
ASTEX 1 4.2 00:57:45 10° N 01:02:18 39° WNW 01:05:07 21° SW
SL-14 R/B 3.2 01:02:27 32° SSW 01:04:09 80° W 01:08:03 10° N
USA 267 4.1 01:02:14 23° SSW 01:04:52 29° SW 01:10:28 10° WNW
USA 305 3.3 01:07:08 30° SSW 01:08:36 42° SE 01:12:33 10° ENE
Cosmos 371 Rocket 3.3 01:06:03 26° SSW 01:08:47 88° ESE 01:13:41 10° NNE
USA 229 DEB 4.2 01:02:01 10° NW 01:09:00 49° WSW 01:15:06 16° S
USA 229 4.2 01:02:07 10° NW 01:09:07 49° WSW 01:15:15 15° S
Cosmos 2150 Rocket 3.9 01:06:08 25° SSW 01:09:12 89° WNW 01:14:24 10° NNE
Cosmos 2237 Rocket 2.3 01:11:28 24° SSW 01:15:01 74° ESE 01:20:45 10° NNE
COSMOS 2428 3.3 01:12:17 16° SW 01:16:43 51° NW 01:22:17 10° NNE
Cosmos 1437 Rocket 3.8 01:14:49 10° NNW 01:18:05 29° W 01:19:16 24° SW
Cosmos 405 Rocket 3.7 01:18:03 22° WSW 01:19:50 35° WNW 01:23:22 10° N
Cosmos 304 Rocket 3.8 01:17:17 25° SSW 01:20:06 73° ESE 01:24:56 10° NNE
SL-16 R/B 2.9 01:15:32 10° SSE 01:21:41 67° ENE 01:27:53 10° NNW
Okean 1 Rocket 4.0 01:18:04 10° NNW 01:22:04 34° W 01:24:05 23° SW
Lacrosse 5 rocket 3.3 01:21:54 12° SE 01:23:08 14° SE 01:25:10 10° E
Cosmos 1125 Rocket 3.6 01:20:01 22° SW 01:23:22 69° WNW 01:28:36 10° NNE
Cosmos 1953 3.5 01:21:22 10° NNW 01:24:53 29° W 01:26:26 22° SW
SME Rocket 3.3 01:24:34 22° S 01:27:12 69° WSW 01:32:33 10° NNW
Cosmos 2074 Rocket 4.4 01:20:56 10° N 01:27:12 64° ENE 01:33:27 10° SSE
Cosmos 2360 Rocket 4.3 01:23:20 10° W 01:27:39 22° NW 01:31:59 10° NNE
Resurs 1-4 Rocket 2.6 01:22:47 10° NNE 01:27:57 53° E 01:31:56 17° S
Cosmos 2297 4.0 01:25:57 10° NNW 01:31:44 72° ENE 01:37:28 10° SE
Cosmos 1943 Rocket 2.2 01:26:04 10° NNW 01:31:48 86° ENE 01:37:28 10° SSE
USA 290 4.3 01:32:42 12° W 01:34:46 20° NW 01:37:16 10° N
Cosmos 1709 Rocket 4.3 01:29:16 10° NNW 01:35:10 50° W 01:39:17 19° SSW
MOZ.5/SAFIR/RUBIN 5/SL-8 4.1 01:34:00 22° SSW 01:36:48 49° W 01:41:26 10° NNW
Cosmos 1626 4.3 01:36:40 11° WSW 01:38:45 16° WNW 01:41:08 10° NNW
Cosmos 2315 Rocket 4.2 01:35:34 20° SSW 01:40:11 68° WNW 01:46:35 10° N
Cosmos 2184 Rocket 4.1 01:35:49 10° N 01:42:08 77° E 01:48:20 10° SSE
Cosmos 2278 Rocket 3.2 01:37:52 10° NW 01:42:36 28° WSW 01:45:23 19° SW
EO 1 Delta rocket 4.2 01:38:06 10° N 01:42:38 56° WNW 01:46:02 19° SSW
ADEOS II 3.1 01:38:51 10° NNE 01:43:48 40° E 01:48:40 10° SSE
IDEFIX/ARIANE 42P 3.8 01:39:49 10° NNE 01:44:40 35° E 01:49:28 10° SSE
USA 306 2.8 01:47:34 19° SW 01:50:30 68° SSE 01:54:39 10° ENE
Cosmos 2084 Rocket 3.6 01:49:15 22° SSW 01:51:25 50° SE 01:55:07 10° NE
Thor Agena Rocket 3.8 01:46:59 10° N 01:52:11 61° WNW 01:56:09 18° SW
USA 307 2.9 01:51:04 19° SW 01:53:59 65° SSE 01:58:09 10° ENE
NPP 3.8 01:50:36 10° NNE 01:56:01 73° ESE 02:00:36 15° S
ERBS 2.0 01:54:54 24° SW 01:56:31 67° SSE 01:59:34 10° ENE
Cosmos 2369 Rocket 2.8 01:51:27 10° NNW 01:57:01 60° NE 02:02:32 10° SE
Gblst 52 Del rocket 4.2 01:51:54 10° W 01:57:49 89° S 02:03:20 10° E
Cosmos 1455 Rocket 3.8 01:56:16 10° NNW 02:00:25 38° W 02:03:14 18° SSW
Cosmos 614 Rocket 4.0 01:55:34 10° NNW 02:00:48 85° ENE 02:06:02 10° SSE
Cosmos 2228 4.1 01:56:47 10° N 02:01:00 44° ENE 02:05:10 10° SSE
CZ-4 R/B 3.7 01:56:21 10° NNE 02:01:03 86° WNW 02:04:41 17° SSW
EO 1 Del DPAF 4.3 01:58:50 10° NNE 02:02:06 35° E 02:05:16 10° SSE
SL-16 R/B 2.5 01:58:00 16° S 02:02:33 62° ESE 02:08:10 10° NE
Cosmos 2251 Rocket 4.1 01:57:32 10° NNW 02:02:45 59° ENE 02:07:57 10° SE
Cosmos 1656 Rocket 4.3 02:01:04 10° NNW 02:06:25 56° NE 02:11:44 10° SE
Cosmos 1980 4.3 02:02:27 14° SW 02:07:15 51° NW 02:12:46 10° NNE
Meteor 1-28 Rocket 3.2 02:03:55 10° SSE 02:07:39 81° ENE 02:11:24 10° NNW
Cosmos 2333 Rocket 4.3 02:04:57 10° W 02:09:06 20° NNW 02:13:17 10° NNE
CZ-4C R/B 4.4 02:04:47 10° WNW 02:09:25 17° WSW 02:12:59 13° SW
USA 215 3.9 02:03:31 10° ENE 02:09:55 58° N 02:16:19 10° W
COSMOS 2455 3.7 02:04:48 12° S 02:10:03 41° ESE 02:15:40 10° NE
Cosmos 332 Rocket 4.2 02:07:03 16° SW 02:10:46 53° WNW 02:15:29 10° NNE
NOSS 3 (A) 3.2 02:10:22 40° WSW 02:10:46 64° NW 02:12:35 10° NE
Cosmos 1536 Rocket 3.9 02:08:03 12° S 02:12:08 64° E 02:16:30 10° NNE
Cosmos 1975 Rocket 4.0 02:16:47 15° SW 02:20:02 36° WNW 02:24:12 10° N
Nadezhda 1 Rocket 4.2 02:15:20 10° S 02:21:41 78° E 02:27:59 10° NNE
Meteor 1-24 Rocket 3.9 02:17:03 14° SSW 02:21:49 62° WNW 02:27:13 10° N
MSX 4.4 02:16:11 10° NNE 02:21:51 55° E 02:27:31 10° S
UNK 4.0 02:19:09 11° S 02:23:23 49° W 02:27:53 10° NNW
Cosmos 1455 2.5 02:20:44 10° NNW 02:24:18 45° W 02:27:22 13° SSW
USA 308 2.8 02:20:31 11° WSW 02:24:35 86° SSE 02:28:48 10° ENE
Cosmos 1025 Rocket 3.9 02:23:55 14° SW 02:27:14 36° WNW 02:31:14 10° N
MOS 1 Rocket 3.3 02:23:22 11° S 02:27:26 50° W 02:31:40 10° NNW
Cosmos 1271 Rocket 2.6 02:24:20 10° NNW 02:28:08 73° W 02:31:59 10° S
Cosmos 2219 Rocket 4.4 02:28:22 10° WNW 02:32:11 18° NNW 02:36:01 10° NNE
Cosmos 1606 Rocket 4.1 02:27:50 10° N 02:32:14 60° ENE 02:36:34 10° SSE
CZ-2D R/B 2.7 02:33:37 10° N 02:38:49 48° WNW 02:43:47 11° SW
Lacrosse 5 2.0 02:37:42 11° SW 02:42:33 72° SE 02:47:39 10° ENE
Helios 1B rocket 4.1 02:39:21 10° NNE 02:42:59 31° E 02:46:36 10° SSE
Cosmos 2341 Rocket 4.2 02:38:31 10° N 02:44:57 80° E 02:51:21 10° SSE
USA 305 3.0 02:43:52 10° W 02:48:03 75° NNW 02:52:14 10° ENE
Cosmos 2154 Rocket 4.3 02:42:11 10° NNW 02:48:20 53° W 02:54:25 10° SSW
Meteor 2-1 Rocket 4.4 02:43:41 10° NNW 02:49:32 86° ENE 02:55:13 10° SSE
Cosmos 407 Rocket 3.7 02:45:22 10° NNW 02:50:44 81° ENE 02:56:02 10° SSE
SL-8 Rocket 4.3 02:45:19 10° N 02:51:41 75° ENE 02:58:00 10° SSE
SAR-Lupe-2 4.5 02:51:38 10° N 02:54:58 36° WNW 02:58:16 10° SW
AQUA 4.4 02:51:16 10° N 02:55:49 46° WNW 03:00:21 10° SW
Cosmos 1943 4.0 02:52:11 10° S 02:57:38 48° ESE 03:03:04 10° NE
Cosmos 1328 4.4 02:53:55 10° S 02:57:47 56° E 03:01:43 10° NNE
Helios 1A 3.7 02:54:17 10° SSW 02:58:08 35° W 03:02:04 10° NNW
Genesis I 3.3 02:54:14 10° NW 02:58:20 85° SW 03:02:21 10° SE
Cosmos 2237 Rocket 3.7 02:54:46 10° W 02:59:40 29° NW 03:04:37 10° NNE
Lacrosse 5 rocket 1.4 02:57:33 10° SW 03:01:26 67° SE 03:05:34 10° ENE
Cosmos 1140 Rocket 3.5 02:56:24 10° NNW 03:01:42 82° WSW 03:06:56 10° SSE
ATLAS 2AS CENTAUR R/B 4.4 02:57:16 10° NW 03:04:07 38° NNE 03:10:33 10° E
SL-16 R/B 3.6 03:00:37 10° SSW 03:05:47 27° W 03:11:01 10° NW
Resurs 1-4 Rocket 3.3 03:03:02 10° N 03:07:32 30° WNW 03:12:02 10° WSW
NOSS 3-4 (A) 4.4 03:02:19 10° NW 03:08:59 65° NE 03:16:34 10° ESE
NOSS 3-4 (C) 4.4 03:02:24 10° NW 03:09:03 65° NE 03:16:36 10° ESE
Lacrosse 4 Rocket 4.2 03:08:26 10° SE 03:10:01 12° ESE 03:11:36 10° E
Cosmos 1892 Rocket 4.1 03:07:11 10° S 03:11:35 65° E 03:16:03 10° NNE
